Time,TemperatureF,DewpointF,PressureIn,WindDirection,WindDirectionDegrees,WindSpeedMPH,WindSpeedGustMPH,Humidity,HourlyPrecipIn,Conditions,Clouds,dailyrainin,SoftwareType,DateUTC
2013-06-27 00:01:00,66.0,66.0,30.08,SSW,198,0.0,0.0,100,-0.39,,,0.00,Weather View 32 v70,2013-06-27 04:01:00,
2013-06-27 00:02:00,66.0,66.0,30.08,SSW,198,0.0,0.0,100,-0.39,,,0.00,Weather View 32 v70,2013-06-27 04:02:00,
2013-06-27 00:07:00,66.0,66.0,30.08,SSW,200,0.0,0.0,100,-0.39,,,0.00,Weather View 32 v70,2013-06-27 04:07:00,
2013-06-27 00:12:00,66.1,66.1,30.08,SSW,203,0.0,0.0,100,-0.39,,,0.00,Weather View 32 v70,2013-06-27 04:12:00,
2013-06-27 00:17:00,66.1,66.1,30.07,SSW,203,0.0,0.0,100,-0.39,,,0.00,Weather View 32 v70,2013-06-27 04:17:00,
2013-06-27 00:22:00,66.1,66.1,30.07,SSW,202,0.0,0.0,100,-0.39,,,0.00,Weather View 32 v70,2013-06-27 04:22:00,
2013-06-27 00:27:00,66.2,66.2,30.07,SSW,200,0.0,0.0,100,-0.39,,,0.00,Weather View 32 v70,2013-06-27 04:27:00,
2013-06-27 00:32:00,66.2,66.2,30.07,SSW,199,0.0,0.0,100,-0.39,,,0.00,Weather View 32 v70,2013-06-27 04:32:00,
2013-06-27 00:37:00,66.2,66.2,30.08,SSW,199,0.0,0.0,100,-0.39,,,0.00,Weather View 32 v70,2013-06-27 04:37:00,
2013-06-27 00:42:00,66.3,66.3,30.08,SSW,199,0.0,0.0,100,-0.39,,,0.00,Weather View 32 v70,2013-06-27 04:42:00,
2013-06-27 00:47:00,66.3,66.3,30.07,SSW,199,0.0,0.0,100,-0.39,,,0.00,Weather View 32 v70,2013-06-27 04:47:00,
2013-06-27 00:52:00,66.4,66.4,30.06,SSW,200,0.0,0.0,100,-0.39,,,0.00,Weather View 32 v70,2013-06-27 04:52:00,
2013-06-27 00:57:00,66.4,66.4,30.07,SSW,199,0.0,0.0,100,-0.39,,,0.00,Weather View 32 v70,2013-06-27 04:57:00,
2013-06-27 01:02:00,66.4,66.4,30.07,SSW,199,0.0,0.0,100,0.00,,,0.00,Weather View 32 v70,2013-06-27 05:02:00,
2013-06-27 01:07:00,66.5,66.5,30.07,SSW,198,0.0,0.0,100,0.00,,,0.00,Weather View 32 v70,2013-06-27 05:07:00,
2013-06-27 01:12:00,66.5,66.5,30.07,SSW,198,0.0,0.0,100,0.01,,,0.01,Weather View 32 v70,2013-06-27 05:12:00,
2013-06-27 01:17:00,66.5,66.5,30.06,SSW,198,0.0,0.0,100,0.01,,,0.01,Weather View 32 v70,2013-06-27 05:17:00,
2013-06-27 01:22:00,66.5,66.5,30.06,SSW,198,0.0,0.0,100,0.02,,,0.02,Weather View 32 v70,2013-06-27 05:22:00,
2013-06-27 01:27:00,66.5,66.5,30.05,SSW,198,0.0,0.0,100,0.02,,,0.02,Weather View 32 v70,2013-06-27 05:27:00,
2013-06-27 01:32:00,66.5,66.5,30.05,SSW,198,0.0,0.0,100,0.02,,,0.02,Weather View 32 v70,2013-06-27 05:32:00,
2013-06-27 01:37:00,66.4,66.4,30.05,SSW,198,0.0,0.0,100,0.02,,,0.02,Weather View 32 v70,2013-06-27 05:37:00,
2013-06-27 01:42:00,66.4,66.4,30.05,SSW,198,0.0,0.0,100,0.02,,,0.02,Weather View 32 v70,2013-06-27 05:42:00,
2013-06-27 01:47:00,66.5,66.5,30.04,SSW,198,0.0,0.0,100,0.02,,,0.02,Weather View 32 v70,2013-06-27 05:47:00,
2013-06-27 01:52:00,66.6,66.6,30.04,SSW,198,0.0,0.0,100,0.02,,,0.02,Weather View 32 v70,2013-06-27 05:52:00,
2013-06-27 01:57:00,66.6,66.6,30.04,SSW,198,0.0,0.0,100,0.02,,,0.02,Weather View 32 v70,2013-06-27 05:57:00,
2013-06-27 02:02:00,66.5,66.5,30.05,SSW,198,0.0,0.0,100,0.02,,,0.02,Weather View 32 v70,2013-06-27 06:02:00,
2013-06-27 02:07:00,66.5,66.5,30.05,South,188,0.0,0.0,100,0.02,,,0.02,Weather View 32 v70,2013-06-27 06:07:00,
2013-06-27 02:12:00,66.5,66.5,30.04,South,170,0.0,0.0,100,0.01,,,0.02,Weather View 32 v70,2013-06-27 06:12:00,
2013-06-27 02:17:00,66.4,66.4,30.04,South,170,0.0,0.0,100,0.01,,,0.02,Weather View 32 v70,2013-06-27 06:17:00,
2013-06-27 02:22:00,66.3,66.3,30.04,South,170,0.0,0.0,100,0.00,,,0.02,Weather View 32 v70,2013-06-27 06:22:00,
2013-06-27 02:27:00,66.3,66.3,30.04,South,170,0.0,0.0,100,0.00,,,0.02,Weather View 32 v70,2013-06-27 06:27:00,
2013-06-27 02:32:00,66.3,66.3,30.04,South,170,0.0,0.0,100,0.00,,,0.02,Weather View 32 v70,2013-06-27 06:32:00,
2013-06-27 02:37:00,66.2,66.2,30.04,South,170,0.0,0.0,100,0.00,,,0.02,Weather View 32 v70,2013-06-27 06:37:00,
2013-06-27 02:42:00,66.1,66.1,30.04,South,170,0.0,0.0,100,0.00,,,0.02,Weather View 32 v70,2013-06-27 06:42:00,
2013-06-27 02:47:00,66.1,66.1,30.03,South,170,0.0,0.0,100,0.00,,,0.02,Weather View 32 v70,2013-06-27 06:47:00,
2013-06-27 02:52:00,66.2,66.2,30.03,South,170,0.0,0.0,100,0.00,,,0.02,Weather View 32 v70,2013-06-27 06:52:00,
2013-06-27 02:57:00,66.2,66.2,30.03,South,170,0.0,0.0,100,0.00,,,0.02,Weather View 32 v70,2013-06-27 06:57:00,
2013-06-27 03:02:00,66.3,66.3,30.02,South,170,0.0,0.0,100,0.00,,,0.02,Weather View 32 v70,2013-06-27 07:02:00,
2013-06-27 03:07:00,66.3,66.3,30.01,South,170,0.0,0.0,100,0.00,,,0.02,Weather View 32 v70,2013-06-27 07:07:00,
2013-06-27 03:12:00,66.2,66.2,30.01,South,170,0.0,0.0,100,0.00,,,0.02,Weather View 32 v70,2013-06-27 07:12:00,
2013-06-27 03:17:00,66.1,66.1,30.00,South,170,0.0,0.0,100,0.00,,,0.02,Weather View 32 v70,2013-06-27 07:17:00,
2013-06-27 03:22:00,66.1,66.1,30.00,SSE,165,0.0,0.0,100,0.00,,,0.02,Weather View 32 v70,2013-06-27 07:22:00,
2013-06-27 03:27:00,66.0,66.0,30.00,SSE,165,0.0,0.0,100,0.00,,,0.02,Weather View 32 v70,2013-06-27 07:27:00,
2013-06-27 03:32:00,66.0,66.0,30.00,SSE,167,0.0,0.0,100,0.00,,,0.02,Weather View 32 v70,2013-06-27 07:32:00,
2013-06-27 03:37:00,66.0,66.0,30.00,South,171,0.0,0.0,100,0.00,,,0.02,Weather View 32 v70,2013-06-27 07:37:00,
2013-06-27 03:42:00,66.0,66.0,29.99,South,172,0.0,0.0,100,0.00,,,0.02,Weather View 32 v70,2013-06-27 07:42:00,
2013-06-27 03:47:00,66.0,66.0,29.99,South,173,0.0,0.0,100,0.00,,,0.02,Weather View 32 v70,2013-06-27 07:47:00,
2013-06-27 03:53:00,66.0,66.0,29.99,South,177,0.0,0.0,100,0.00,,,0.02,Weather View 32 v70,2013-06-27 07:53:00,
2013-06-27 03:58:00,66.0,66.0,29.99,SSW,196,0.0,0.0,100,0.00,,,0.02,Weather View 32 v70,2013-06-27 07:58:00,
2013-06-27 04:03:00,66.0,66.0,29.99,SSW,196,0.0,0.0,100,0.00,,,0.02,Weather View 32 v70,2013-06-27 08:03:00,
2013-06-27 04:08:00,66.0,66.0,29.99,SSW,200,0.0,0.0,100,0.00,,,0.02,Weather View 32 v70,2013-06-27 08:08:00,
2013-06-27 04:13:00,66.1,66.1,30.00,South,189,0.0,0.0,100,0.00,,,0.02,Weather View 32 v70,2013-06-27 08:13:00,
2013-06-27 04:18:00,66.1,66.1,30.00,South,189,0.0,0.0,100,0.00,,,0.02,Weather View 32 v70,2013-06-27 08:18:00,
2013-06-27 04:23:00,66.2,66.2,30.00,South,190,0.0,0.0,100,0.01,,,0.04,Weather View 32 v70,2013-06-27 08:23:00,
2013-06-27 04:28:00,66.2,66.2,30.00,South,189,0.0,0.0,100,0.02,,,0.04,Weather View 32 v70,2013-06-27 08:28:00,
2013-06-27 04:33:00,66.3,66.3,30.01,South,189,0.0,0.0,100,0.05,,,0.07,Weather View 32 v70,2013-06-27 08:33:00,
2013-06-27 04:38:00,66.3,66.3,30.01,South,189,0.0,0.0,100,0.07,,,0.09,Weather View 32 v70,2013-06-27 08:38:00,
2013-06-27 04:43:00,66.4,66.4,30.00,South,189,0.0,0.0,100,0.15,,,0.17,Weather View 32 v70,2013-06-27 08:43:00,
2013-06-27 04:48:00,66.6,66.6,30.00,South,174,0.0,1.0,100,0.15,,,0.17,Weather View 32 v70,2013-06-27 08:48:00,
2013-06-27 04:53:00,66.5,66.5,30.01,South,180,0.0,1.0,100,0.16,,,0.18,Weather View 32 v70,2013-06-27 08:53:00,
2013-06-27 04:58:00,66.5,66.5,30.01,South,180,0.0,1.0,100,0.17,,,0.19,Weather View 32 v70,2013-06-27 08:58:00,
2013-06-27 05:03:00,66.6,66.6,30.01,South,179,0.0,1.0,100,0.17,,,0.19,Weather View 32 v70,2013-06-27 09:03:00,
2013-06-27 05:08:00,66.6,66.6,30.01,South,179,0.0,1.0,100,0.19,,,0.21,Weather View 32 v70,2013-06-27 09:08:00,
2013-06-27 05:13:00,66.5,66.5,30.02,South,179,0.0,1.0,100,0.30,,,0.33,Weather View 32 v70,2013-06-27 09:13:00,
2013-06-27 05:18:00,66.2,66.2,30.00,West,273,0.0,1.0,100,0.43,,,0.45,Weather View 32 v70,2013-06-27 09:18:00,
2013-06-27 05:23:00,65.9,65.9,30.00,West,274,0.0,1.0,100,0.53,,,0.56,Weather View 32 v70,2013-06-27 09:23:00,
2013-06-27 05:28:00,65.8,65.8,30.01,West,274,0.0,1.0,100,0.54,,,0.58,Weather View 32 v70,2013-06-27 09:28:00,
2013-06-27 05:33:00,65.7,65.7,30.02,SW,224,0.0,1.0,100,0.56,,,0.64,Weather View 32 v70,2013-06-27 09:33:00,
2013-06-27 05:38:00,65.7,65.7,30.01,South,191,0.0,1.0,100,0.64,,,0.74,Weather View 32 v70,2013-06-27 09:38:00,
2013-06-27 05:43:00,65.5,65.5,30.02,WSW,238,3.0,3.0,100,0.78,,,0.96,Weather View 32 v70,2013-06-27 09:43:00,
2013-06-27 05:48:00,65.0,65.0,30.00,West,269,0.0,5.0,100,1.04,,,1.21,Weather View 32 v70,2013-06-27 09:48:00,
2013-06-27 05:53:00,64.8,64.8,30.00,West,269,0.0,5.0,100,1.06,,,1.24,Weather View 32 v70,2013-06-27 09:53:00,
2013-06-27 05:58:00,64.8,64.8,30.01,SSE,156,0.0,5.0,100,1.05,,,1.24,Weather View 32 v70,2013-06-27 09:58:00,
2013-06-27 06:03:00,64.8,64.8,30.01,SSE,156,0.0,5.0,100,1.05,,,1.25,Weather View 32 v70,2013-06-27 10:03:00,
2013-06-27 06:08:00,64.8,64.8,30.01,SE,134,0.0,5.0,100,1.06,,,1.27,Weather View 32 v70,2013-06-27 10:08:00,
2013-06-27 06:13:00,64.8,64.8,30.01,SSE,160,0.0,5.0,100,0.95,,,1.27,Weather View 32 v70,2013-06-27 10:13:00,
2013-06-27 06:18:00,64.7,64.7,30.01,SSE,160,0.0,5.0,100,0.82,,,1.27,Weather View 32 v70,2013-06-27 10:18:00,
2013-06-27 06:23:00,64.7,64.7,30.01,SSE,160,0.0,5.0,100,0.71,,,1.27,Weather View 32 v70,2013-06-27 10:23:00,
2013-06-27 06:28:00,64.6,64.6,30.00,SSE,160,0.0,5.0,100,0.69,,,1.27,Weather View 32 v70,2013-06-27 10:28:00,
2013-06-27 06:33:00,64.6,64.6,30.00,SSE,160,0.0,5.0,100,0.64,,,1.27,Weather View 32 v70,2013-06-27 10:33:00,
2013-06-27 06:38:00,64.6,64.6,30.00,SSE,160,0.0,5.0,100,0.54,,,1.27,Weather View 32 v70,2013-06-27 10:38:00,
2013-06-27 06:43:00,64.6,64.6,30.00,SSE,160,0.0,5.0,100,0.32,,,1.27,Weather View 32 v70,2013-06-27 10:43:00,
2013-06-27 06:48:00,64.6,64.6,30.00,SSE,160,0.0,0.0,100,0.06,,,1.27,Weather View 32 v70,2013-06-27 10:48:00,
2013-06-27 06:53:00,64.6,64.6,30.00,SSE,160,0.0,0.0,100,0.03,,,1.27,Weather View 32 v70,2013-06-27 10:53:00,
2013-06-27 06:58:00,64.6,64.6,29.99,SSE,160,0.0,0.0,100,0.03,,,1.27,Weather View 32 v70,2013-06-27 10:58:00,
2013-06-27 07:03:00,64.6,64.6,29.99,SSE,160,0.0,0.0,100,0.03,,,1.27,Weather View 32 v70,2013-06-27 11:03:00,
2013-06-27 07:08:00,64.6,64.6,29.99,SSE,164,0.0,0.0,100,0.00,,,1.27,Weather View 32 v70,2013-06-27 11:08:00,
2013-06-27 07:13:00,64.7,64.7,29.99,SSE,164,0.0,0.0,100,0.00,,,1.27,Weather View 32 v70,2013-06-27 11:13:00,
2013-06-27 07:18:00,64.7,64.7,29.99,SSE,164,0.0,0.0,100,0.00,,,1.27,Weather View 32 v70,2013-06-27 11:18:00,
2013-06-27 07:23:00,64.8,64.8,29.99,SSE,164,0.0,0.0,100,0.00,,,1.27,Weather View 32 v70,2013-06-27 11:23:00,
2013-06-27 07:28:00,64.8,64.8,29.99,SSE,164,0.0,0.0,100,0.00,,,1.27,Weather View 32 v70,2013-06-27 11:28:00,
2013-06-27 07:33:00,64.9,64.9,30.00,SSE,164,0.0,0.0,100,0.00,,,1.27,Weather View 32 v70,2013-06-27 11:33:00,
2013-06-27 07:38:00,65.0,65.0,29.99,SSE,164,0.0,0.0,100,0.00,,,1.27,Weather View 32 v70,2013-06-27 11:38:00,
2013-06-27 07:43:00,65.1,65.1,29.99,SSE,164,0.0,0.0,100,0.00,,,1.27,Weather View 32 v70,2013-06-27 11:43:00,
2013-06-27 07:48:00,65.2,65.2,29.99,SSE,164,0.0,0.0,100,0.00,,,1.27,Weather View 32 v70,2013-06-27 11:48:00,
2013-06-27 07:53:00,65.3,65.3,29.99,SSE,164,0.0,0.0,100,0.00,,,1.27,Weather View 32 v70,2013-06-27 11:53:00,
2013-06-27 07:58:00,65.4,65.4,29.99,SSE,164,0.0,0.0,100,0.00,,,1.27,Weather View 32 v70,2013-06-27 11:58:00,
2013-06-27 08:03:00,65.4,65.4,29.99,SSE,164,0.0,0.0,100,0.00,,,1.27,Weather View 32 v70,2013-06-27 12:03:00,
2013-06-27 08:08:00,65.5,65.5,29.99,SSE,164,0.0,0.0,100,0.00,,,1.27,Weather View 32 v70,2013-06-27 12:08:00,
2013-06-27 08:13:00,65.6,65.6,29.98,SSE,156,0.0,0.0,100,0.00,,,1.27,Weather View 32 v70,2013-06-27 12:13:00,
2013-06-27 08:18:00,65.7,65.7,29.99,SSW,211,0.0,0.0,100,0.00,,,1.27,Weather View 32 v70,2013-06-27 12:18:00,
2013-06-27 08:23:00,65.9,65.9,29.99,SSW,211,0.0,0.0,100,0.00,,,1.27,Weather View 32 v70,2013-06-27 12:23:00,
2013-06-27 08:28:00,66.0,66.0,29.99,SSW,211,0.0,0.0,100,0.00,,,1.27,Weather View 32 v70,2013-06-27 12:28:00,
2013-06-27 08:33:00,66.1,66.1,30.00,SSW,212,0.0,0.0,100,0.00,,,1.27,Weather View 32 v70,2013-06-27 12:33:00,
2013-06-27 08:38:00,66.3,66.3,30.00,SSW,212,0.0,0.0,100,0.00,,,1.27,Weather View 32 v70,2013-06-27 12:38:00,
2013-06-27 08:43:00,66.5,66.5,30.00,SSW,212,0.0,0.0,100,0.00,,,1.27,Weather View 32 v70,2013-06-27 12:43:00,
2013-06-27 08:48:00,66.8,66.8,30.00,SW,218,0.0,0.0,100,0.00,,,1.27,Weather View 32 v70,2013-06-27 12:48:00,
2013-06-27 08:53:00,67.0,67.0,30.00,SW,218,0.0,0.0,100,0.00,,,1.27,Weather View 32 v70,2013-06-27 12:53:00,
2013-06-27 08:58:00,67.4,67.4,30.00,SW,232,0.0,0.0,100,0.00,,,1.27,Weather View 32 v70,2013-06-27 12:58:00,
2013-06-27 09:03:00,67.6,67.6,30.00,SW,232,0.0,0.0,100,0.00,,,1.27,Weather View 32 v70,2013-06-27 13:03:00,
2013-06-27 09:08:00,67.6,67.6,29.99,SW,232,0.0,0.0,100,0.00,,,1.27,Weather View 32 v70,2013-06-27 13:08:00,
2013-06-27 09:13:00,67.6,67.6,29.99,SW,232,0.0,0.0,100,0.00,,,1.27,Weather View 32 v70,2013-06-27 13:13:00,
2013-06-27 09:18:00,67.8,67.8,29.99,SW,233,0.0,0.0,100,0.00,,,1.27,Weather View 32 v70,2013-06-27 13:18:00,
2013-06-27 09:23:00,68.0,68.0,29.99,SW,233,0.0,0.0,100,0.00,,,1.27,Weather View 32 v70,2013-06-27 13:23:00,
2013-06-27 09:28:00,68.3,68.3,29.98,SW,232,0.0,0.0,100,0.00,,,1.27,Weather View 32 v70,2013-06-27 13:28:00,
2013-06-27 09:33:00,68.7,68.7,29.99,SW,233,0.0,0.0,100,0.00,,,1.27,Weather View 32 v70,2013-06-27 13:33:00,
2013-06-27 09:38:00,69.0,69.0,29.98,SW,233,0.0,0.0,100,0.00,,,1.27,Weather View 32 v70,2013-06-27 13:38:00,
2013-06-27 09:43:00,68.9,68.9,29.99,SW,233,0.0,0.0,100,0.00,,,1.27,Weather View 32 v70,2013-06-27 13:43:00,
2013-06-27 09:48:00,68.7,68.7,29.98,SW,233,0.0,0.0,100,0.00,,,1.27,Weather View 32 v70,2013-06-27 13:48:00,
2013-06-27 09:53:00,68.8,68.8,29.98,SW,233,0.0,0.0,100,0.00,,,1.27,Weather View 32 v70,2013-06-27 13:53:00,
2013-06-27 09:58:00,68.9,68.9,29.98,SW,233,0.0,0.0,100,0.00,,,1.27,Weather View 32 v70,2013-06-27 13:58:00,
2013-06-27 10:03:00,69.0,69.0,29.98,SW,233,0.0,0.0,100,0.00,,,1.27,Weather View 32 v70,2013-06-27 14:03:00,
2013-06-27 10:08:00,69.0,69.0,29.98,SW,233,0.0,0.0,100,0.00,,,1.27,Weather View 32 v70,2013-06-27 14:08:00,
2013-06-27 10:13:00,69.1,69.1,29.98,WSW,252,0.0,0.0,100,0.00,,,1.27,Weather View 32 v70,2013-06-27 14:13:00,
2013-06-27 10:18:00,69.0,69.0,29.98,SSW,207,0.0,3.0,100,0.00,,,1.27,Weather View 32 v70,2013-06-27 14:18:00,
2013-06-27 10:23:00,69.0,69.0,29.98,West,263,0.0,5.0,100,0.00,,,1.27,Weather View 32 v70,2013-06-27 14:23:00,
2013-06-27 10:28:00,69.5,69.5,29.98,West,260,0.0,7.0,100,0.00,,,1.27,Weather View 32 v70,2013-06-27 14:28:00,
2013-06-27 10:33:00,69.8,69.8,29.98,WSW,249,0.0,7.0,100,0.00,,,1.27,Weather View 32 v70,2013-06-27 14:33:00,
2013-06-27 10:38:00,70.3,70.3,29.98,SSW,207,0.0,7.0,100,0.00,,,1.27,Weather View 32 v70,2013-06-27 14:38:00,
2013-06-27 10:43:00,70.4,70.4,29.98,WSW,249,0.0,7.0,100,0.00,,,1.27,Weather View 32 v70,2013-06-27 14:43:00,
2013-06-27 10:48:00,70.3,70.3,29.98,WSW,256,0.0,7.0,100,0.00,,,1.27,Weather View 32 v70,2013-06-27 14:48:00,
2013-06-27 10:53:00,70.5,70.5,29.98,South,182,0.0,7.0,100,0.00,,,1.27,Weather View 32 v70,2013-06-27 14:53:00,
2013-06-27 10:58:00,70.7,70.7,29.98,West,261,0.0,7.0,100,0.00,,,1.27,Weather View 32 v70,2013-06-27 14:58:00,
2013-06-27 11:03:00,70.9,70.9,29.98,North,11,0.0,7.0,100,0.00,,,1.27,Weather View 32 v70,2013-06-27 15:03:00,
2013-06-27 11:08:00,71.6,71.0,29.98,South,185,0.0,7.0,98,0.00,,,1.27,Weather View 32 v70,2013-06-27 15:08:00,
2013-06-27 11:13:00,72.3,71.7,29.97,SW,236,0.0,7.0,98,0.00,,,1.27,Weather View 32 v70,2013-06-27 15:13:00,
2013-06-27 11:18:00,73.1,71.6,29.97,NNE,23,2.0,7.0,95,0.00,,,1.27,Weather View 32 v70,2013-06-27 15:18:00,
2013-06-27 11:23:00,73.9,72.1,29.98,SW,235,0.0,7.0,94,0.00,,,1.27,Weather View 32 v70,2013-06-27 15:23:00,
2013-06-27 11:28:00,74.4,72.9,29.98,SW,220,0.0,7.0,95,0.00,,,1.27,Weather View 32 v70,2013-06-27 15:28:00,
2013-06-27 11:33:00,74.2,71.4,29.98,North,349,1.0,7.0,91,0.00,,,1.27,Weather View 32 v70,2013-06-27 15:33:00,
2013-06-27 11:38:00,74.2,71.4,29.98,NNE,22,0.0,8.0,91,0.00,,,1.27,Weather View 32 v70,2013-06-27 15:38:00,
2013-06-27 11:43:00,74.6,71.1,29.98,NW,311,0.0,8.0,89,0.00,,,1.27,Weather View 32 v70,2013-06-27 15:43:00,
2013-06-27 11:49:00,74.7,71.2,29.98,North,354,2.0,8.0,89,0.00,,,1.27,Weather View 32 v70,2013-06-27 15:49:00,
2013-06-27 11:54:00,75.2,71.7,29.98,SW,228,4.0,8.0,89,0.00,,,1.27,Weather View 32 v70,2013-06-27 15:54:00,
2013-06-27 11:59:00,75.3,71.5,29.97,North,6,4.0,8.0,88,0.00,,,1.27,Weather View 32 v70,2013-06-27 15:59:00,
2013-06-27 12:04:00,75.6,71.1,29.97,WNW,285,0.0,8.0,86,0.00,,,1.27,Weather View 32 v70,2013-06-27 16:04:00,
2013-06-27 12:09:00,76.0,71.5,29.97,NE,54,0.0,8.0,86,0.00,,,1.27,Weather View 32 v70,2013-06-27 16:09:00,
2013-06-27 12:14:00,76.0,71.5,29.97,South,180,0.0,8.0,86,0.00,,,1.27,Weather View 32 v70,2013-06-27 16:14:00,
2013-06-27 12:19:00,76.3,72.1,29.97,SSW,205,0.0,8.0,87,0.00,,,1.27,Weather View 32 v70,2013-06-27 16:19:00,
2013-06-27 12:24:00,76.2,71.3,29.97,NE,52,2.0,8.0,85,0.00,,,1.27,Weather View 32 v70,2013-06-27 16:24:00,
2013-06-27 12:29:00,76.7,71.5,29.97,NW,318,0.0,8.0,84,0.00,,,1.27,Weather View 32 v70,2013-06-27 16:29:00,
2013-06-27 12:34:00,77.0,72.5,29.96,South,191,0.0,8.0,86,0.00,,,1.27,Weather View 32 v70,2013-06-27 16:34:00,
2013-06-27 12:39:00,77.3,72.1,29.96,NW,319,0.0,8.0,84,0.00,,,1.27,Weather View 32 v70,2013-06-27 16:39:00,
2013-06-27 12:44:00,77.3,72.1,29.97,NNE,20,1.0,8.0,84,0.00,,,1.27,Weather View 32 v70,2013-06-27 16:44:00,
2013-06-27 12:49:00,76.9,70.6,29.96,WNW,298,2.0,8.0,81,0.00,,,1.27,Weather View 32 v70,2013-06-27 16:49:00,
2013-06-27 12:54:00,77.0,71.8,29.96,SSW,200,0.0,8.0,84,0.00,,,1.27,Weather View 32 v70,2013-06-27 16:54:00,
2013-06-27 12:59:00,76.6,71.4,29.96,SSE,164,0.0,8.0,84,0.00,,,1.27,Weather View 32 v70,2013-06-27 16:59:00,
2013-06-27 13:04:00,76.5,71.6,29.96,North,354,0.0,8.0,85,0.00,,,1.27,Weather View 32 v70,2013-06-27 17:04:00,
2013-06-27 13:09:00,76.8,71.2,29.96,NW,315,2.0,8.0,83,0.00,,,1.27,Weather View 32 v70,2013-06-27 17:09:00,
2013-06-27 13:14:00,77.4,70.7,29.96,NNW,345,3.0,8.0,80,0.00,,,1.27,Weather View 32 v70,2013-06-27 17:14:00,
2013-06-27 13:19:00,78.2,72.2,29.96,East,90,1.0,8.0,82,0.00,,,1.27,Weather View 32 v70,2013-06-27 17:19:00,
2013-06-27 13:24:00,78.6,71.9,29.96,NNW,335,2.0,7.0,80,0.00,,,1.27,Weather View 32 v70,2013-06-27 17:24:00,
2013-06-27 13:29:00,79.0,71.1,29.96,SSE,163,1.0,7.0,77,0.00,,,1.27,Weather View 32 v70,2013-06-27 17:29:00,
2013-06-27 13:34:00,79.4,71.1,29.96,NNE,20,0.0,7.0,76,0.00,,,1.27,Weather View 32 v70,2013-06-27 17:34:00,
2013-06-27 13:39:00,79.3,71.0,29.96,NNW,337,6.0,7.0,76,0.00,,,1.27,Weather View 32 v70,2013-06-27 17:39:00,
2013-06-27 13:44:00,79.3,70.7,29.96,NW,316,1.0,7.0,75,0.00,,,1.27,Weather View 32 v70,2013-06-27 17:44:00,
2013-06-27 13:49:00,79.5,71.6,29.96,NE,39,1.0,9.0,77,0.00,,,1.27,Weather View 32 v70,2013-06-27 17:49:00,
2013-06-27 13:54:00,79.6,70.9,29.96,SSW,210,0.0,9.0,75,0.00,,,1.27,Weather View 32 v70,2013-06-27 17:54:00,
2013-06-27 13:59:00,80.1,71.0,29.95,SSE,149,2.0,9.0,74,0.00,,,1.27,Weather View 32 v70,2013-06-27 17:59:00,
2013-06-27 14:04:00,80.3,71.6,29.96,NNW,343,0.0,9.0,75,0.00,,,1.27,Weather View 32 v70,2013-06-27 18:04:00,
2013-06-27 14:09:00,80.6,71.1,29.96,North,6,4.0,9.0,73,0.00,,,1.27,Weather View 32 v70,2013-06-27 18:09:00,
2013-06-27 14:14:00,80.5,70.6,29.96,NW,306,3.0,9.0,72,0.00,,,1.27,Weather View 32 v70,2013-06-27 18:14:00,
2013-06-27 14:19:00,80.8,71.7,29.96,WSW,240,2.0,9.0,74,0.00,,,1.27,Weather View 32 v70,2013-06-27 18:19:00,
2013-06-27 14:25:00,81.0,71.1,29.96,WNW,283,2.0,9.0,72,0.00,,,1.27,Weather View 32 v70,2013-06-27 18:25:00,
2013-06-27 14:30:00,81.0,70.7,29.95,NNW,348,2.0,9.0,71,0.00,,,1.27,Weather View 32 v70,2013-06-27 18:30:00,
2013-06-27 14:35:00,80.8,70.9,29.95,WSW,247,3.0,9.0,72,0.00,,,1.27,Weather View 32 v70,2013-06-27 18:35:00,
2013-06-27 14:40:00,80.7,72.0,29.95,NE,38,2.0,9.0,75,0.00,,,1.27,Weather View 32 v70,2013-06-27 18:40:00,
2013-06-27 14:45:00,80.9,71.4,29.95,WNW,283,1.0,9.0,73,0.00,,,1.27,Weather View 32 v70,2013-06-27 18:45:00,
2013-06-27 14:50:00,81.1,70.8,29.95,East,98,1.0,8.0,71,0.00,,,1.27,Weather View 32 v70,2013-06-27 18:50:00,
2013-06-27 14:55:00,81.2,70.0,29.95,West,265,3.0,8.0,69,0.00,,,1.27,Weather View 32 v70,2013-06-27 18:55:00,
2013-06-27 15:00:00,80.7,69.5,29.95,WNW,299,3.0,9.0,69,0.00,,,1.27,Weather View 32 v70,2013-06-27 19:00:00,
2013-06-27 15:05:00,80.4,70.5,29.95,SW,216,0.0,9.0,72,0.00,,,1.27,Weather View 32 v70,2013-06-27 19:05:00,
2013-06-27 15:10:00,79.5,69.2,29.95,NW,321,2.0,10.0,71,0.00,,,1.27,Weather View 32 v70,2013-06-27 19:10:00,
2013-06-27 15:15:00,79.5,70.0,29.95,NNW,328,2.0,10.0,73,0.00,,,1.27,Weather View 32 v70,2013-06-27 19:15:00,
2013-06-27 15:20:00,79.5,70.0,29.95,WNW,298,1.0,10.0,73,0.00,,,1.27,Weather View 32 v70,2013-06-27 19:20:00,
2013-06-27 15:25:00,79.7,71.8,29.95,South,190,0.0,10.0,77,0.00,,,1.27,Weather View 32 v70,2013-06-27 19:25:00,
2013-06-27 15:30:00,79.9,71.6,29.95,North,7,0.0,10.0,76,0.00,,,1.27,Weather View 32 v70,2013-06-27 19:30:00,
2013-06-27 15:35:00,80.6,71.5,29.94,West,264,0.0,10.0,74,0.00,,,1.27,Weather View 32 v70,2013-06-27 19:35:00,
2013-06-27 15:40:00,80.7,70.8,29.94,NE,39,4.0,10.0,72,0.00,,,1.27,Weather View 32 v70,2013-06-27 19:40:00,
2013-06-27 15:45:00,80.2,70.3,29.94,NNW,338,4.0,10.0,72,0.00,,,1.27,Weather View 32 v70,2013-06-27 19:45:00,
2013-06-27 15:50:00,80.1,70.2,29.94,WSW,241,0.0,10.0,72,0.00,,,1.27,Weather View 32 v70,2013-06-27 19:50:00,
2013-06-27 15:55:00,80.3,70.8,29.94,NNE,12,0.0,10.0,73,0.00,,,1.27,Weather View 32 v70,2013-06-27 19:55:00,
2013-06-27 16:00:00,80.0,71.3,29.94,South,175,0.0,10.0,75,0.00,,,1.27,Weather View 32 v70,2013-06-27 20:00:00,
2013-06-27 16:05:00,79.8,71.1,29.93,South,175,0.0,10.0,75,0.00,,,1.27,Weather View 32 v70,2013-06-27 20:05:00,
2013-06-27 16:10:00,80.3,71.2,29.93,North,351,1.0,7.0,74,0.00,,,1.27,Weather View 32 v70,2013-06-27 20:10:00,
2013-06-27 16:15:00,80.2,70.7,29.93,NNW,329,0.0,6.0,73,0.00,,,1.27,Weather View 32 v70,2013-06-27 20:15:00,
2013-06-27 16:20:00,80.1,71.4,29.93,West,268,0.0,5.0,75,0.00,,,1.27,Weather View 32 v70,2013-06-27 20:20:00,
2013-06-27 16:25:00,79.8,71.5,29.93,SW,234,0.0,5.0,76,0.00,,,1.27,Weather View 32 v70,2013-06-27 20:25:00,
2013-06-27 16:30:00,79.7,71.8,29.93,SW,227,0.0,5.0,77,0.00,,,1.27,Weather View 32 v70,2013-06-27 20:30:00,
2013-06-27 16:35:00,79.3,72.2,29.92,SW,227,0.0,5.0,79,0.00,,,1.27,Weather View 32 v70,2013-06-27 20:35:00,
2013-06-27 16:40:00,78.8,72.1,29.92,SW,227,0.0,5.0,80,0.00,,,1.27,Weather View 32 v70,2013-06-27 20:40:00,
2013-06-27 16:46:00,78.5,71.0,29.92,NNW,340,0.0,5.0,78,0.00,,,1.27,Weather View 32 v70,2013-06-27 20:46:00,
2013-06-27 16:51:00,78.6,71.1,29.92,SE,129,1.0,6.0,78,0.00,,,1.27,Weather View 32 v70,2013-06-27 20:51:00,
2013-06-27 16:56:00,78.9,72.5,29.92,SSE,167,0.0,6.0,81,0.00,,,1.27,Weather View 32 v70,2013-06-27 20:56:00,
2013-06-27 17:01:00,78.9,72.5,29.91,South,181,0.0,6.0,81,0.00,,,1.27,Weather View 32 v70,2013-06-27 21:01:00,
2013-06-27 17:06:00,79.2,72.5,29.91,South,169,0.0,6.0,80,0.00,,,1.27,Weather View 32 v70,2013-06-27 21:06:00,
2013-06-27 17:11:00,79.6,72.1,29.91,NNW,327,0.0,6.0,78,0.00,,,1.27,Weather View 32 v70,2013-06-27 21:11:00,
2013-06-27 17:16:00,80.1,73.0,29.91,NNE,19,0.0,6.0,79,0.00,,,1.27,Weather View 32 v70,2013-06-27 21:16:00,
2013-06-27 17:21:00,80.4,72.9,29.90,NNW,331,0.0,7.0,78,0.00,,,1.27,Weather View 32 v70,2013-06-27 21:21:00,
2013-06-27 17:26:00,80.2,71.5,29.90,SSE,149,0.0,7.0,75,0.00,,,1.27,Weather View 32 v70,2013-06-27 21:26:00,
2013-06-27 17:31:00,80.0,72.9,29.90,SW,229,0.0,7.0,79,0.00,,,1.27,Weather View 32 v70,2013-06-27 21:31:00,
2013-06-27 17:36:00,79.3,71.8,29.90,SSW,199,0.0,7.0,78,0.00,,,1.27,Weather View 32 v70,2013-06-27 21:36:00,
2013-06-27 17:41:00,79.0,71.1,29.91,WNW,292,0.0,7.0,77,0.00,,,1.27,Weather View 32 v70,2013-06-27 21:41:00,
2013-06-27 17:46:00,78.4,70.9,29.91,SW,218,2.0,7.0,78,0.00,,,1.27,Weather View 32 v70,2013-06-27 21:46:00,
2013-06-27 17:52:00,78.5,72.2,29.91,WSW,257,0.0,7.0,81,0.00,,,1.27,Weather View 32 v70,2013-06-27 21:52:00,
2013-06-27 17:57:00,78.4,70.6,29.91,NW,325,3.0,7.0,77,0.00,,,1.27,Weather View 32 v70,2013-06-27 21:57:00,
2013-06-27 18:02:00,78.7,72.0,29.91,WSW,243,0.0,7.0,80,0.00,,,1.27,Weather View 32 v70,2013-06-27 22:02:00,
2013-06-27 18:07:00,78.9,71.4,29.91,West,268,0.0,7.0,78,0.00,,,1.27,Weather View 32 v70,2013-06-27 22:07:00,
2013-06-27 18:12:00,78.9,72.2,29.91,West,267,0.0,7.0,80,0.00,,,1.27,Weather View 32 v70,2013-06-27 22:12:00,
2013-06-27 18:17:00,78.9,71.4,29.91,South,184,0.0,7.0,78,0.00,,,1.27,Weather View 32 v70,2013-06-27 22:17:00,
2013-06-27 18:22:00,78.9,71.0,29.91,SSW,209,0.0,5.0,77,0.00,,,1.27,Weather View 32 v70,2013-06-27 22:22:00,
2013-06-27 18:27:00,79.1,71.6,29.90,SW,236,0.0,5.0,78,0.00,,,1.27,Weather View 32 v70,2013-06-27 22:27:00,
2013-06-27 18:32:00,79.0,71.1,29.90,SW,225,0.0,5.0,77,0.00,,,1.27,Weather View 32 v70,2013-06-27 22:32:00,
2013-06-27 18:38:00,78.7,71.6,29.90,South,188,0.0,5.0,79,0.00,,,1.27,Weather View 32 v70,2013-06-27 22:38:00,
2013-06-27 18:43:00,78.4,71.3,29.90,SSE,161,0.0,5.0,79,0.00,,,1.27,Weather View 32 v70,2013-06-27 22:43:00,
2013-06-27 18:48:00,77.7,70.3,29.91,SSW,197,0.0,4.0,78,0.00,,,1.27,Weather View 32 v70,2013-06-27 22:48:00,
2013-06-27 18:53:00,77.4,70.0,29.91,SE,133,0.0,4.0,78,0.00,,,1.27,Weather View 32 v70,2013-06-27 22:53:00,
2013-06-27 18:58:00,77.0,70.0,29.91,SW,226,1.0,4.0,79,0.00,,,1.27,Weather View 32 v70,2013-06-27 22:58:00,
2013-06-27 19:03:00,76.8,70.9,29.90,SSW,193,0.0,4.0,82,0.00,,,1.27,Weather View 32 v70,2013-06-27 23:03:00,
2013-06-27 19:09:00,76.5,71.3,29.90,South,173,0.0,4.0,84,0.00,,,1.27,Weather View 32 v70,2013-06-27 23:09:00,
2013-06-27 19:14:00,76.0,70.8,29.90,West,271,0.0,4.0,84,0.00,,,1.27,Weather View 32 v70,2013-06-27 23:14:00,
2013-06-27 19:19:00,75.7,70.8,29.90,West,271,0.0,4.0,85,0.00,,,1.27,Weather View 32 v70,2013-06-27 23:19:00,
2013-06-27 19:25:00,75.4,70.6,29.91,West,270,0.0,4.0,85,0.00,,,1.27,Weather View 32 v70,2013-06-27 23:25:00,
2013-06-27 19:30:00,75.2,71.0,29.91,SW,231,0.0,4.0,87,0.00,,,1.27,Weather View 32 v70,2013-06-27 23:30:00,
2013-06-27 19:35:00,75.1,70.9,29.91,South,189,0.0,4.0,87,0.00,,,1.27,Weather View 32 v70,2013-06-27 23:35:00,
2013-06-27 19:40:00,74.9,70.8,29.91,West,272,0.0,4.0,87,0.00,,,1.27,Weather View 32 v70,2013-06-27 23:40:00,
2013-06-27 19:45:00,74.9,70.8,29.92,SSW,194,0.0,5.0,87,0.00,,,1.27,Weather View 32 v70,2013-06-27 23:45:00,
2013-06-27 19:50:00,74.6,70.8,29.92,South,183,0.0,5.0,88,0.00,,,1.27,Weather View 32 v70,2013-06-27 23:50:00,
2013-06-27 19:55:00,74.3,70.8,29.91,WSW,251,0.0,5.0,89,0.00,,,1.27,Weather View 32 v70,2013-06-27 23:55:00,
2013-06-27 20:01:00,73.9,70.8,29.91,WSW,250,0.0,5.0,90,0.00,,,1.27,Weather View 32 v70,2013-06-28 00:01:00,
2013-06-27 20:06:00,73.6,70.5,29.92,South,186,0.0,5.0,90,0.00,,,1.27,Weather View 32 v70,2013-06-28 00:06:00,
2013-06-27 20:11:00,73.4,70.6,29.92,SSW,213,0.0,5.0,91,0.00,,,1.27,Weather View 32 v70,2013-06-28 00:11:00,
2013-06-27 20:16:00,73.2,70.1,29.93,SSW,194,0.0,5.0,90,0.00,,,1.27,Weather View 32 v70,2013-06-28 00:16:00,
2013-06-27 20:21:00,73.3,70.5,29.91,SW,230,0.0,5.0,91,0.00,,,1.27,Weather View 32 v70,2013-06-28 00:21:00,
2013-06-27 20:26:00,73.3,70.2,29.92,ESE,105,0.0,5.0,90,0.00,,,1.27,Weather View 32 v70,2013-06-28 00:26:00,
2013-06-27 20:31:00,73.3,68.2,29.92,NNE,28,0.0,5.0,84,0.00,,,1.27,Weather View 32 v70,2013-06-28 00:31:00,
2013-06-27 20:36:00,73.9,68.0,29.92,ENE,59,1.0,5.0,82,0.00,,,1.27,Weather View 32 v70,2013-06-28 00:36:00,
2013-06-27 20:41:00,74.1,67.5,29.92,NW,316,2.0,5.0,80,0.00,,,1.27,Weather View 32 v70,2013-06-28 00:41:00,
2013-06-27 20:46:00,74.3,66.6,29.93,NW,321,0.0,5.0,77,0.00,,,1.27,Weather View 32 v70,2013-06-28 00:46:00,
2013-06-27 20:52:00,74.3,65.8,29.93,NW,313,1.0,5.0,75,0.00,,,1.27,Weather View 32 v70,2013-06-28 00:52:00,
2013-06-27 20:57:00,74.3,65.4,29.93,NNW,329,2.0,8.0,74,0.00,,,1.27,Weather View 32 v70,2013-06-28 00:57:00,
2013-06-27 21:02:00,74.4,66.7,29.93,SW,225,0.0,8.0,77,0.00,,,1.27,Weather View 32 v70,2013-06-28 01:02:00,
2013-06-27 21:07:00,74.0,68.5,29.93,SSW,209,0.0,8.0,83,0.00,,,1.27,Weather View 32 v70,2013-06-28 01:07:00,
2013-06-27 21:12:00,73.4,68.6,29.93,SSW,208,0.0,8.0,85,0.00,,,1.27,Weather View 32 v70,2013-06-28 01:12:00,
2013-06-27 21:17:00,72.6,68.2,29.94,South,170,0.0,8.0,86,0.00,,,1.27,Weather View 32 v70,2013-06-28 01:17:00,
2013-06-27 21:22:00,71.9,67.1,29.94,SSW,196,0.0,8.0,85,0.00,,,1.27,Weather View 32 v70,2013-06-28 01:22:00,
2013-06-27 21:28:00,71.4,67.3,29.94,SSW,197,0.0,8.0,87,-0.88,,,1.27,Weather View 32 v70,2013-06-28 01:28:00,
2013-06-27 21:33:00,70.7,67.0,29.94,SSW,196,0.0,8.0,88,0.00,,,1.27,Weather View 32 v70,2013-06-28 01:33:00,
2013-06-27 21:38:00,70.2,66.8,29.94,South,191,0.0,8.0,89,0.00,,,1.27,Weather View 32 v70,2013-06-28 01:38:00,
2013-06-27 21:43:00,69.8,66.7,29.94,South,191,0.0,8.0,90,0.00,,,1.27,Weather View 32 v70,2013-06-28 01:43:00,
2013-06-27 21:49:00,69.5,66.7,29.94,South,178,0.0,8.0,91,0.00,,,1.27,Weather View 32 v70,2013-06-28 01:49:00,
2013-06-27 21:54:00,69.4,66.6,29.94,South,179,0.0,8.0,91,0.00,,,1.27,Weather View 32 v70,2013-06-28 01:54:00,
2013-06-27 21:59:00,69.2,66.4,29.94,South,176,0.0,2.0,91,0.00,,,1.27,Weather View 32 v70,2013-06-28 01:59:00,
2013-06-27 22:04:00,69.1,66.7,29.94,South,176,0.0,0.0,92,0.00,,,1.27,Weather View 32 v70,2013-06-28 02:04:00,
2013-06-27 22:09:00,69.0,66.9,29.94,South,176,0.0,0.0,93,0.00,,,1.27,Weather View 32 v70,2013-06-28 02:09:00,
2013-06-27 22:14:00,69.0,67.2,29.94,South,177,0.0,0.0,94,0.00,,,1.27,Weather View 32 v70,2013-06-28 02:14:00,
2013-06-27 22:19:00,69.0,67.5,29.95,South,177,0.0,0.0,95,0.00,,,1.27,Weather View 32 v70,2013-06-28 02:19:00,
2013-06-27 22:25:00,69.0,67.5,29.95,South,177,0.0,0.0,95,0.00,,,1.27,Weather View 32 v70,2013-06-28 02:25:00,
2013-06-27 22:30:00,69.0,67.8,29.95,South,177,0.0,0.0,96,0.00,,,1.27,Weather View 32 v70,2013-06-28 02:30:00,
2013-06-27 22:35:00,69.0,67.8,29.95,South,177,0.0,0.0,96,0.00,,,1.27,Weather View 32 v70,2013-06-28 02:35:00,
2013-06-27 22:40:00,69.0,67.8,29.95,South,177,0.0,0.0,96,0.00,,,1.27,Weather View 32 v70,2013-06-28 02:40:00,
2013-06-27 22:45:00,69.0,68.1,29.95,South,177,0.0,0.0,97,0.00,,,1.27,Weather View 32 v70,2013-06-28 02:45:00,
2013-06-27 22:50:00,69.0,68.1,29.97,SSE,156,0.0,0.0,97,0.00,,,1.27,Weather View 32 v70,2013-06-28 02:50:00,
2013-06-27 22:55:00,69.0,68.4,29.97,NNW,335,0.0,0.0,98,0.05,,,1.32,Weather View 32 v70,2013-06-28 02:55:00,
2013-06-27 23:00:00,68.6,68.3,29.96,North,9,0.0,0.0,99,0.05,,,1.32,Weather View 32 v70,2013-06-28 03:00:00,
2013-06-27 23:05:00,68.4,68.4,29.96,SSE,152,0.0,0.0,100,0.05,,,1.32,Weather View 32 v70,2013-06-28 03:05:00,
2013-06-27 23:10:00,68.2,68.2,29.96,North,358,0.0,0.0,100,0.05,,,1.32,Weather View 32 v70,2013-06-28 03:10:00,
2013-06-27 23:16:00,68.0,68.0,29.96,North,358,0.0,0.0,100,-0.88,,,1.32,Weather View 32 v70,2013-06-28 03:16:00,
2013-06-27 23:21:00,67.9,67.9,29.96,North,358,0.0,0.0,100,0.05,,,1.32,Weather View 32 v70,2013-06-28 03:21:00,
2013-06-27 23:26:00,67.7,67.7,29.96,North,6,0.0,0.0,100,0.05,,,1.32,Weather View 32 v70,2013-06-28 03:26:00,
2013-06-27 23:31:00,67.5,67.5,29.96,North,7,0.0,0.0,100,0.05,,,1.32,Weather View 32 v70,2013-06-28 03:31:00,
2013-06-27 23:36:00,67.3,67.3,29.95,North,7,0.0,0.0,100,0.05,,,1.32,Weather View 32 v70,2013-06-28 03:36:00,
2013-06-27 23:41:00,67.2,67.2,29.96,North,10,0.0,0.0,100,0.05,,,1.32,Weather View 32 v70,2013-06-28 03:41:00,
2013-06-27 23:46:00,67.1,67.1,29.96,ESE,120,0.0,0.0,100,0.05,,,1.32,Weather View 32 v70,2013-06-28 03:46:00,
2013-06-27 23:51:00,67.0,67.0,29.96,ESE,120,0.0,0.0,100,0.05,,,1.32,Weather View 32 v70,2013-06-28 03:51:00,
2013-06-27 23:56:00,66.8,66.8,29.96,ESE,120,0.0,0.0,100,0.00,,,1.32,Weather View 32 v70,2013-06-28 03:56:00,